UAL1960 KEWR-KSFO

Flight info

Callsign UAL1960
Flight time N/A
Altitude 40000
Route ZIMMZ Q42 LEWRP PWE MCK VOAXA Q136 RUMPS OAL INYOE DYAMD5
Aircraft B772/H-SDE2E3FGHIJ5LORVWXY/LB1D1

Departure

Time 2026-04-22 13:49
Airport Newark Liberty International Airport (KEWR)

Arrival

Time N/A
Airport San Francisco International Airport (KSFO)
Time Latitude Longitude Altitude Speed Heading
2026-04-22 13:31 40.69794 -74.17562 19 ft 0 kts 150°
2026-04-22 13:35 40.69804 -74.17569 19 ft 2 kts 150°
2026-04-22 13:35 40.69812 -74.17575 19 ft 2 kts 147°
2026-04-22 13:35 40.69823 -74.17588 19 ft 2 kts 122°
2026-04-22 13:36 40.69829 -74.17606 19 ft 2 kts 102°
2026-04-22 13:36 40.69830 -74.17626 19 ft 2 kts 81°
2026-04-22 13:36 40.69826 -74.17645 19 ft 2 kts 61°
2026-04-22 13:36 40.69817 -74.17660 19 ft 1 kts 42°
2026-04-22 13:37 40.69813 -74.17664 19 ft 0 kts 39°
2026-04-22 13:41 40.69815 -74.17661 19 ft 2 kts 39°
2026-04-22 13:41 40.69848 -74.17627 19 ft 8 kts 39°
2026-04-22 13:41 40.69897 -74.17562 19 ft 11 kts 46°
2026-04-22 13:41 40.69963 -74.17481 19 ft 14 kts 45°
2026-04-22 13:42 40.70037 -74.17391 19 ft 10 kts 28°
2026-04-22 13:42 40.70106 -74.17339 19 ft 13 kts 55°
2026-04-22 13:42 40.70115 -74.17207 19 ft 15 kts 97°
2026-04-22 13:42 40.70103 -74.17052 19 ft 17 kts 94°
2026-04-22 13:43 40.70096 -74.16930 19 ft 13 kts 94°
2026-04-22 13:43 40.70089 -74.16794 19 ft 16 kts 94°
2026-04-22 13:43 40.70079 -74.16661 19 ft 12 kts 97°
2026-04-22 13:43 40.70070 -74.16534 19 ft 10 kts 94°
2026-04-22 13:44 40.70070 -74.16526 19 ft 0 kts 94°
2026-04-22 13:44 40.70071 -74.16519 19 ft 2 kts 76°
2026-04-22 13:44 40.70098 -74.16488 19 ft 7 kts 22°
2026-04-22 13:44 40.70158 -74.16476 19 ft 7 kts
2026-04-22 13:45 40.70207 -74.16469 19 ft 9 kts
2026-04-22 13:45 40.70268 -74.16437 19 ft 3 kts 54°
2026-04-22 13:45 40.70269 -74.16434 19 ft 0 kts 57°
2026-04-22 13:47 40.70274 -74.16421 19 ft 8 kts 70°
2026-04-22 13:48 40.70276 -74.16302 19 ft 16 kts 95°
2026-04-22 13:48 40.70224 -74.16249 19 ft 11 kts 187°
2026-04-22 13:48 40.70204 -74.16257 19 ft 3 kts 202°
2026-04-22 13:48 40.70074 -74.16335 20 ft 63 kts 206°
2026-04-22 13:49 40.69380 -74.16776 21 ft 153 kts 205°
2026-04-22 13:49 40.68324 -74.17496 734 ft 173 kts 218°
2026-04-22 13:49 40.67754 -74.18717 1820 ft 168 kts 251°
2026-04-22 13:49 40.67924 -74.20342 2242 ft 197 kts 292°
2026-04-22 13:50 40.68889 -74.21729 2787 ft 214 kts 316°
2026-04-22 13:50 40.70047 -74.22970 3461 ft 217 kts 310°
2026-04-22 13:50 40.70771 -74.24604 4132 ft 212 kts 281°
2026-04-22 13:50 40.71061 -74.26586 4603 ft 229 kts 276°
2026-04-22 13:51 40.71298 -74.28672 5285 ft 238 kts 276°
2026-04-22 13:51 40.71521 -74.30843 6075 ft 243 kts 277°
2026-04-22 13:51 40.71757 -74.33019 7000 ft 242 kts 278°
2026-04-22 13:51 40.72002 -74.35223 7791 ft 246 kts 278°
2026-04-22 13:52 40.72253 -74.37480 8558 ft 251 kts 279°
2026-04-22 13:52 40.72506 -74.39761 9318 ft 255 kts 279°
2026-04-22 13:52 40.72760 -74.42055 10054 ft 259 kts 279°
2026-04-22 13:52 40.73023 -74.44443 10589 ft 272 kts 279°
2026-04-22 13:53 40.73306 -74.47004 11019 ft 288 kts 279°
2026-04-22 13:53 40.73600 -74.49674 11446 ft 304 kts 279°
2026-04-22 13:53 40.73910 -74.52500 11831 ft 320 kts 279°
2026-04-22 13:53 40.74236 -74.55482 12222 ft 336 kts 279°
2026-04-22 13:54 40.74573 -74.58566 12717 ft 347 kts 279°
2026-04-22 13:54 40.74916 -74.61719 13421 ft 352 kts 280°
2026-04-22 13:54 40.75262 -74.64911 14221 ft 354 kts 280°
2026-04-22 13:54 40.75608 -74.68115 14996 ft 357 kts 279°
2026-04-22 13:55 40.75958 -74.71349 15739 ft 360 kts 279°
2026-04-22 13:55 40.76314 -74.74650 16446 ft 365 kts 279°
2026-04-22 13:55 40.76669 -74.77957 17125 ft 369 kts 279°
2026-04-22 13:55 40.77027 -74.81301 17817 ft 373 kts 279°
2026-04-22 13:56 40.77392 -74.84721 18500 ft 377 kts 279°
2026-04-22 13:56 40.77753 -74.88111 19144 ft 381 kts 279°
2026-04-22 13:56 40.78125 -74.91605 19770 ft 385 kts 279°
2026-04-22 13:56 40.78492 -74.95078 20409 ft 388 kts 279°
2026-04-22 13:57 40.78867 -74.98624 21053 ft 391 kts 279°
2026-04-22 13:57 40.79239 -75.02159 21688 ft 394 kts 279°
2026-04-22 13:57 40.79613 -75.05729 22289 ft 397 kts 279°
2026-04-22 13:57 40.79994 -75.09371 22872 ft 401 kts 279°
2026-04-22 13:58 40.80370 -75.12972 23480 ft 403 kts 279°
2026-04-22 13:58 40.80641 -75.16702 24064 ft 407 kts 276°
2026-04-22 13:58 40.80857 -75.20422 24608 ft 410 kts 277°
2026-04-22 13:58 40.81077 -75.24171 25146 ft 414 kts 277°
2026-04-22 13:59 40.81302 -75.27956 25686 ft 417 kts 277°
2026-04-22 13:59 40.81529 -75.31757 26199 ft 421 kts 277°
2026-04-22 13:59 40.81759 -75.35602 26705 ft 424 kts 277°
2026-04-22 13:59 40.81994 -75.39504 27212 ft 427 kts 277°
2026-04-22 14:00 40.82227 -75.43403 27712 ft 430 kts 277°
2026-04-22 14:00 40.82463 -75.47345 28208 ft 433 kts 277°
2026-04-22 14:00 40.82698 -75.51286 28667 ft 436 kts 277°
2026-04-22 14:00 40.82935 -75.55292 29090 ft 440 kts 277°
2026-04-22 14:01 40.83173 -75.59322 29549 ft 443 kts 277°
2026-04-22 14:01 40.83411 -75.63374 30165 ft 442 kts 277°
2026-04-22 14:01 40.83645 -75.67398 30901 ft 438 kts 277°
2026-04-22 14:01 40.83875 -75.71372 31603 ft 434 kts 277°
2026-04-22 14:02 40.84102 -75.75320 32178 ft 433 kts 277°
2026-04-22 14:02 40.84327 -75.79243 32680 ft 433 kts 277°
2026-04-22 14:02 40.84553 -75.83205 33177 ft 432 kts 277°
2026-04-22 14:02 40.84776 -75.87137 33717 ft 431 kts 277°
2026-04-22 14:03 40.84996 -75.91032 34276 ft 429 kts 277°
2026-04-22 14:03 40.85215 -75.94942 34760 ft 428 kts 277°
2026-04-22 14:03 40.85432 -75.98840 35155 ft 427 kts 277°
2026-04-22 14:03 40.85649 -76.02766 35480 ft 428 kts 277°
2026-04-22 14:04 40.85863 -76.06646 35771 ft 429 kts 277°
2026-04-22 14:04 40.86078 -76.10580 36077 ft 430 kts 278°
2026-04-22 14:04 40.86291 -76.14503 36374 ft 430 kts 277°
2026-04-22 14:04 40.86504 -76.18453 36698 ft 430 kts 278°
2026-04-22 14:05 40.86714 -76.22374 37014 ft 430 kts 278°
2026-04-22 14:05 40.86922 -76.26266 37297 ft 430 kts 278°
2026-04-22 14:05 40.87339 -76.34167 37784 ft 432 kts 278°
2026-04-22 14:06 40.87544 -76.38078 38032 ft 432 kts 278°
2026-04-22 14:06 40.87749 -76.42042 38290 ft 432 kts 278°
2026-04-22 14:06 40.87953 -76.46006 38546 ft 432 kts 278°
2026-04-22 14:06 40.88156 -76.49965 38731 ft 433 kts 278°
2026-04-22 14:07 40.88357 -76.53913 38909 ft 433 kts 278°
2026-04-22 14:07 40.88555 -76.57839 39097 ft 434 kts 278°
2026-04-22 14:07 40.88756 -76.61840 39308 ft 433 kts 278°
2026-04-22 14:07 40.88952 -76.65782 39513 ft 433 kts 278°
2026-04-22 14:08 40.89149 -76.69752 39678 ft 433 kts 278°
2026-04-22 14:08 40.89341 -76.73650 39812 ft 433 kts 278°
2026-04-22 14:08 40.89536 -76.77639 39938 ft 433 kts 278°
2026-04-22 14:08 40.89727 -76.81584 40060 ft 433 kts 278°
2026-04-22 14:09 40.89917 -76.85545 40074 ft 433 kts 278°
2026-04-22 14:09 40.90292 -76.93429 40067 ft 431 kts 278°
2026-04-22 14:10 40.90664 -77.01348 40063 ft 432 kts 278°
2026-04-22 14:10 40.91028 -77.09229 40048 ft 432 kts 278°
2026-04-22 14:11 40.91388 -77.17138 40036 ft 431 kts 278°
2026-04-22 14:11 40.91742 -77.25008 40019 ft 433 kts 278°
2026-04-22 14:12 40.92093 -77.32963 40017 ft 434 kts 278°
2026-04-22 14:12 40.92437 -77.40885 40012 ft 434 kts 278°
2026-04-22 14:13 40.92777 -77.48809 40014 ft 433 kts 278°
2026-04-22 14:13 40.93110 -77.56730 40015 ft 434 kts 278°
2026-04-22 14:14 40.93438 -77.64649 40018 ft 434 kts 278°
2026-04-22 14:14 40.93762 -77.72611 40026 ft 435 kts 278°
2026-04-22 14:15 40.94080 -77.80550 40032 ft 435 kts 278°